Regional Weather Roundup
Issued by NWS

Home | Current Version | Previous Version | Text Only | Print | Product List | Glossary Off
Versions: 1 2 3 4 5 6 7 8 9 10 11 12 13 14 15 16 17 18 19 20 21 22 23 24 25 26 27 28 29 30 31 32 33 34 35 36 37 38 39 40 41 42 43 44 45 46 47 48 49 50

000
ASUS43 KOAX 231302
RWRNE

WEATHER ROUNDUP FOR NEBRASKA
NATIONAL WEATHER SERVICE OMAHA NE
800 AM CDT FRI JUN 23 2017

NOTES: SATELLITE DATA IS BEING USED TO AUGMENT CLOUD COVER ABOVE
       12000 FEET.
       "FAIR" INDICATES FEW OR NO CLOUDS BELOW 12,000 FEET WITH NO
       SIGNIFICANT WEATHER AND/OR OBSTRUCTIONS TO VISIBILITY.

  * THESE STATIONS DO NOT REPORT WEATHER SUCH AS RAIN...SNOW OR FOG.

NEZ001>004-019>022-054>056-231400-
NEBRASKA PANHANDLE

CITY           SKY/WX    TMP DP  RH WIND       PRES   REMARKS
SCOTTSBLUFF    CLOUDY    54  38  54 W6        30.25F
ALLIANCE       LGT RAIN  50  44  80 N5        30.22F
CHADRON        MOSUNNY   55  42  61 W9        30.22R
GORDON         PTSUNNY   53  46  75 CALM      30.20R
KIMBALL        CLOUDY    50  41  71 N14       30.28S
SIDNEY         CLOUDY    52  42  69 N15       30.25F
$$

NEZ057>060-069>072-079>082-231400-
SOUTHWEST NEBRASKA

CITY           SKY/WX    TMP DP  RH WIND       PRES   REMARKS
NORTH PLATTE   CLOUDY    61  39  44 N23G32    30.16R
IMPERIAL       CLOUDY    56  46  69 N16G28    30.18R
LEXINGTON      CLOUDY    59  44  57 N16G22    30.10R
MCCOOK         CLOUDY    60  47  61 N20G28    30.11R
OGALLALA       CLOUDY    60  42  52 N26G38    30.20R
$$

NEZ005>010-023>029-035>040-094-231400-
NORTH CENTRAL NEBRASKA

CITY           SKY/WX    TMP DP  RH WIND       PRES   REMARKS
VALENTINE      CLOUDY    57  41  55 W13       30.17S
AINSWORTH      CLOUDY    55  46  72 NW15G21   30.16R
BROKEN BOW     CLOUDY    61  39  44 N24G36    30.10R
O`NEILL        CLOUDY    58  47  67 NW20G29   30.09R
ORD            LGT RAIN  59  39  47 NW21G28   30.06R
THEDFORD       CLOUDY    54  46  73 NW17G29   30.19R
$$

NEZ041-046>049-061>064-073>077-083>087-231400-
SOUTH CENTRAL NEBRASKA

CITY           SKY/WX    TMP DP  RH WIND       PRES   REMARKS
GRAND ISLAND   CLOUDY    64  42  44 N15       30.03R
AURORA         CLOUDY    64  43  47 N14       30.01R
HASTINGS       CLOUDY    64  43  46 N16G23    30.05R
HEBRON         CLOUDY    67  54  63 N13       29.99R
HOLDREGE       CLOUDY    60  46  59 N12G22    30.05R
KEARNEY *      CLOUDY    63  39  42 N17G26    30.05R
$$

NEZ011>018-030>034-042>045-231400-
NORTHEAST NEBRASKA

CITY           SKY/WX    TMP DP  RH WIND       PRES   REMARKS
NORFOLK        CLOUDY    61  43  51 NW16      29.99R
ALBION         CLOUDY    62  41  45 N22G31    29.99S
BLAIR          CLOUDY    65  49  56 NW6       29.93S
FREMONT        PTSUNNY   64  46  51 NW14      29.96R
TEKAMAH        PTSUNNY   65  46  50 N14       29.94R
WAYNE          PTSUNNY   62  45  53 NW16G24   29.98R
$$

NEZ050>053-065>068-078-088>093-231400-
SOUTHEAST NEBRASKA

CITY           SKY/WX    TMP DP  RH WIND       PRES   REMARKS
LINCOLN        CLOUDY    68  52  56 N14       29.97R
OMAHA EPPLEY   CLOUDY    65  54  67 N8        29.92R
BEATRICE       PTSUNNY   67  55  64 N13       29.93R
FALLS CITY     MOSUNNY   68  60  75 N12       29.89R
NEBRASKA CITY  MOSUNNY   67  62  83 N9        29.91R
PLATTSMOUTH    CLOUDY    64  57  78 NW9       29.92R
$$

NEZ044-045-051>053-067-231400-
OMAHA AREA

CITY           SKY/WX    TMP DP  RH WIND       PRES   REMARKS
OMAHA EPPLEY   CLOUDY    65  54  67 N8        29.92R
BLAIR          CLOUDY    65  49  56 NW6       29.93S
FREMONT        PTSUNNY   64  46  51 NW14      29.96R
MILLARD        CLOUDY    67  54  64 NW7       29.93F
PLATTSMOUTH    CLOUDY    64  57  78 NW9       29.92R
WAHOO          FAIR      65  49  55 N10       29.96R
$$




USA.gov is the U.S. government's official web portal to all federal, state and local government web resources and services.